Tenerife Sur, Canary Islands

9:13 PM WEST on August 30, 2016 (GMT +0100)
Reina Sofia

Weather History for GCTS - August, 2012

Change the Weather History Date:

Saturday, August 4, 2012

  Actual Average Record
Temperature  
Mean Temperature 83 °F -  
Max Temperature 91 °F 81 °F 93 °F (2000)
Min Temperature 75 °F 69 °F 66 °F (2002)
Cooling Degree Days 18    
Growing Degree Days 33 (Base 50)    
Moisture  
Dew Point 57 °F    
Average Humidity 43    
Maximum Humidity 73    
Minimum Humidity 20    
Precipitation  
Precipitation 0.00 in - - ()
Sea Level Pressure  
Sea Level Pressure 29.95 in    
Wind  
Wind Speed 23 mph ()    
Max Wind Speed 38 mph    
Max Gust Speed 50 mph    
Averages and records for this station are not official NWS values.
T = Trace of Precipitation, MM = Missing Value Source: Averaged Metar Reports

Daily Weather History Graph

Daily Weather History Graph

Search for Another Location

Airport or City:

Trip Planner

Search our weather history database for the weather conditions in past years. The results will help you decide how hot, cold, wet, or windy it might be!

Date:

Astronomy

Aug. 04, 2012 Rise Set
Actual Time 7:30 AM WEST 8:53 PM WEST
Civil Twilight 7:05 AM WEST 9:18 PM WEST
Nautical Twilight 6:35 AM WEST 9:48 PM WEST
Astronomical Twilight 6:04 AM WEST 10:19 PM WEST
Moon 10:18 PM WEST (8/4) 9:46 AM WEST (8/4)
Length of Visible Light 14h 13m
Length of Day
13h 23m
Waning Gibbous, 94% of the Moon is Illuminated
Aug 4
Waning Gibbous
Aug 9
Last Quarter
Aug 17
New
Aug 24
First Quarter
Aug 31
Full

Hourly Weather History & Observations

Time (WEST) Temp. Heat Index Dew Point Humidity Pressure Visibility Wind Dir Wind Speed Gust Speed Precip Events Conditions
12:00 AM 80.6 °F 80.3 °F 53.6 °F 39% 29.95 in - ENE 31.1 mph 42.6 mph N/A   Clear
12:30 AM 82.4 °F - 51.8 °F 35% 29.95 in - ENE 28.8 mph - N/A   Clear
1:00 AM 84.2 °F - 48.2 °F 29% 29.95 in - ENE 32.2 mph 43.7 mph N/A   Clear
1:30 AM 84.2 °F - 48.2 °F 29% 29.95 in - ENE 31.1 mph 43.7 mph N/A   Clear
2:00 AM 82.4 °F - 50.0 °F 32% 29.92 in - ENE 32.2 mph - N/A   Clear
2:30 AM 82.4 °F - 51.8 °F 35% 29.92 in - ENE 36.8 mph - N/A   Clear
3:00 AM 80.6 °F 80.3 °F 53.6 °F 39% 29.92 in - ENE 34.5 mph - N/A   Clear
3:30 AM 80.6 °F - 51.8 °F 37% 29.92 in - ENE 35.7 mph 47.2 mph N/A   Clear
4:00 AM 80.6 °F - 51.8 °F 37% 29.92 in - ENE 24.2 mph 36.8 mph N/A   Clear
4:30 AM 80.6 °F - 48.2 °F 32% 29.89 in - ENE 28.8 mph 40.3 mph N/A   Clear
5:00 AM 80.6 °F - 50.0 °F 34% 29.92 in - ENE 38.0 mph 49.5 mph N/A   Clear
5:30 AM 82.4 °F - 48.2 °F 30% 29.89 in - ENE 29.9 mph 41.4 mph N/A   Clear
6:00 AM 82.4 °F - 46.4 °F 28% 29.92 in - NE 23.0 mph - N/A   Clear
6:30 AM 82.4 °F - 46.4 °F 28% 29.92 in - ENE 21.9 mph - N/A   Clear
7:00 AM 80.6 °F - 48.2 °F 32% 29.92 in - ENE 25.3 mph - N/A   Clear
7:30 AM 80.6 °F 81.1 °F 59.0 °F 48% 29.95 in - NNE 13.8 mph - N/A   Clear
8:00 AM 80.6 °F - 48.2 °F 32% 29.95 in - ENE 21.9 mph - N/A   Clear
8:30 AM 82.4 °F - 44.6 °F 26% 29.92 in - ENE 27.6 mph - N/A   Clear
9:00 AM 84.2 °F - 39.2 °F 20% 29.92 in - ENE 27.6 mph - N/A   Clear
9:30 AM 82.4 °F 82.0 °F 57.2 °F 42% 29.95 in - NNE 9.2 mph - N/A   Clear
10:00 AM 84.2 °F - 48.2 °F 29% 29.98 in - NE 15.0 mph - N/A   Clear
10:30 AM 86.0 °F - 48.2 °F 27% 29.98 in - ENE 15.0 mph - N/A   Clear
11:00 AM 86.0 °F 85.4 °F 59.0 °F 40% 29.98 in - Variable 5.8 mph 18.4 mph N/A   Clear
11:30 AM 86.0 °F 84.5 °F 55.4 °F 35% 29.98 in - Variable 6.9 mph - N/A   Clear
12:00 PM 89.6 °F - 48.2 °F 24% 29.98 in - ENE 17.3 mph - N/A   Clear
12:30 PM 89.6 °F 87.3 °F 53.6 °F 29% 29.98 in - ENE 21.9 mph - N/A   Clear
1:00 PM 91.4 °F 89.1 °F 53.6 °F 28% 29.98 in - ENE 20.7 mph - N/A   Clear
1:30 PM 89.6 °F 90.1 °F 62.6 °F 40% 29.98 in - East 13.8 mph - N/A   Clear
2:00 PM 84.2 °F 86.6 °F 66.2 °F 55% 29.98 in - SW 13.8 mph - N/A   Clear
2:30 PM 87.8 °F 87.6 °F 60.8 °F 40% 29.98 in - East 17.3 mph - N/A   Clear
3:00 PM 87.8 °F 88.5 °F 62.6 °F 43% 29.98 in - East 25.3 mph - N/A   Clear
3:30 PM 87.8 °F 87.6 °F 60.8 °F 40% 29.95 in - ENE 20.7 mph - N/A   Clear
4:00 PM 87.8 °F 87.6 °F 60.8 °F 40% 29.95 in - ENE 20.7 mph 32.2 mph N/A   Clear
4:30 PM 87.8 °F 88.5 °F 62.6 °F 43% 29.95 in - East 21.9 mph - N/A   Clear
5:00 PM 86.0 °F 87.3 °F 64.4 °F 48% 29.98 in - ENE 26.5 mph - N/A   Clear
5:30 PM 84.2 °F 85.6 °F 64.4 °F 51% 29.98 in - East 21.9 mph - N/A   Clear
6:00 PM 82.4 °F 84.6 °F 66.2 °F 58% 29.95 in - ENE 23.0 mph - N/A   Clear
6:30 PM 82.4 °F 84.6 °F 66.2 °F 58% 29.95 in - ENE 21.9 mph - N/A   Clear
7:00 PM 80.6 °F 82.7 °F 66.2 °F 61% 29.95 in - ENE 20.7 mph - N/A   Clear
7:30 PM 78.8 °F - 66.2 °F 65% 29.98 in - East 20.7 mph - N/A   Clear
8:00 PM 78.8 °F - 66.2 °F 65% 29.98 in - ENE 19.6 mph - N/A   Clear
8:30 PM 77.0 °F - 66.2 °F 69% 29.98 in - ENE 19.6 mph - N/A   Clear
9:00 PM 75.2 °F - 66.2 °F 73% 29.98 in - ENE 18.4 mph - N/A   Clear
9:30 PM 75.2 °F - 66.2 °F 73% 29.98 in - ENE 17.3 mph - N/A   Clear
10:00 PM 75.2 °F - 64.4 °F 69% 29.98 in - ENE 18.4 mph - N/A   Clear
10:30 PM 75.2 °F - 64.4 °F 69% 29.98 in - ENE 18.4 mph - N/A   Clear
11:00 PM 75.2 °F - 64.4 °F 69% 29.98 in - ENE 17.3 mph - N/A   Clear
11:30 PM 75.2 °F - 64.4 °F 69% 29.98 in - ENE 13.8 mph - N/A   Clear